Content
SEND FEEDBACK

Daily
Averages
Monthly
Summary
United States of America

GLEN CANYON CITY, UTAH


Home > North America > United States > Utah
Elevation: 4133 feet     Latitude: 37 05N     Longitude: 111 40W

WEATHER
 
SELECT A DAY
Number of Records: 194,777;   Date Range: 1/1/95 - 8/12/14
 
SHARE

PRINT THIS DATA

[ ← Previous Day ]
WEATHER ALMANAC - JUNE 21, 2013
[ Next Day → ]
[ °C ]   °F
Weather ElementAverageHighLow
Temperature83.7 °F93.9 °F (2:53 pm)70 °F (4:53 am)
Dewpoint16.3 °F21.9 °F (6:53 am)12 °F (1:53 am)
Humidity8.6 %15 % (6:53 am)5 % (1:53 pm)
Barometer29.69 in29.77 in (7:53 am)29.62 in (4:53 pm)
Wind Speed6.8 mph13.8 mph (5:53 pm)
Wind Gust24.2 mph (1:53 pm)
Weather ElementAverage
Visibility10 mi
Wind DirectionS (178.3 °)

Weather ElementTotal
Precipitation---
Cooling Degree Days17 (Base 65)
Growing Degree Days32 (Base 50)
Averaged from 23 records on June 21, 2013
WEATHER CONDITIONS BREAKOUT
WIND DIRECTION BREAKOUT
WEATHER BY HOUR - JUNE 21, 2013
[ °C ]   °F
Local TimeTemperatureDewpointHumidityBarometerVisibilityWind DirectionWind SpeedGust SpeedPrecipitationEventsConditions
1:53 AM73.0 °F12.0 °F10 %29.70 in10.0 miCalmClear
2:53 AM71.1 °F14.0 °F11 %29.71 in10.0 miSSW (210°)5.8 mphClear
3:53 AM73.9 °F14.0 °F10 %29.70 in10.0 miSouth (190°)4.6 mphClear
4:53 AM70.0 °F15.1 °F12 %29.72 in10.0 miWSW (240°)3.5 mphClear
5:53 AM72.0 °F17.1 °F12 %29.74 in10.0 miSSW (210°)4.6 mphClear
6:53 AM73.0 °F21.9 °F15 %29.75 in10.0 miNorth (360°)4.6 mphClear
7:53 AM75.0 °F19.9 °F13 %29.77 in10.0 miCalmClear
8:53 AM80.1 °F17.1 °F9 %29.76 in10.0 miVariable3.5 mphClear
9:53 AM84.0 °F17.1 °F8 %29.75 in10.0 miVariable3.5 mphClear
10:53 AM87.1 °F17.1 °F8 %29.73 in10.0 miSW (230°)8.1 mphClear
11:53 AM89.1 °F15.1 °F6 %29.72 in10.0 miSW (220°)11.5 mph18.4 mphClear
12:53 PM91.9 °F15.1 °F6 %29.69 in10.0 miSouth (180°)8.1 mph18.4 mphClear
1:53 PM93.0 °F14.0 °F5 %29.68 in10.0 miSSW (200°)10.4 mph24.2 mphClear
2:53 PM93.9 °F15.1 °F6 %29.66 in10.0 miSW (220°)12.7 mph23.0 mphClear
3:53 PM93.0 °F15.1 °F6 %29.64 in10.0 miVariable6.9 mph19.6 mphClear
4:53 PM93.9 °F16.0 °F6 %29.62 in10.0 miSSW (210°)8.1 mph18.4 mphClear
5:53 PM93.0 °F16.0 °F6 %29.62 in10.0 miSW (220°)13.8 mph24.2 mphClear
6:53 PM91.0 °F17.1 °F7 %29.62 in10.0 miWSW (240°)10.4 mph18.4 mphClear
7:53 PM89.1 °F16.0 °F7 %29.63 in10.0 miWSW (240°)9.2 mphClear
8:53 PM87.1 °F16.0 °F7 %29.64 in10.0 miSW (220°)8.1 mph19.6 mphClear
9:53 PM86.0 °F17.1 °F8 %29.65 in10.0 miSW (230°)6.9 mph17.3 mphClear
10:53 PM82.9 °F18.0 °F9 %29.66 in10.0 miSW (230°)8.1 mphClear
11:53 PM81.0 °F19.9 °F10 %29.68 in10.0 miWSW (250°)4.6 mphClear
Hourly data recorded from KPGA, located miles away from Glen Canyon City, Utah







STORIES FROM OUR PARTNERS